Tracking 31027 objects as of 19-Jul-2025
HD Live streaming from Space Station
objects crossing your sky now

STARLINK-31152

Track STARLINK-31152 now!
10-day predictions
STARLINK-31152 is classified as:


NORAD ID: 58734
Int'l Code: 2024-005G
Perigee: 565.7 km
Apogee: 566.7 km
Inclination: 43.0 °
Period: 95.8 minutes
Semi major axis: 6937 km
RCS: Unknown
Launch date: January 7, 2024
Source: United States (US)
Launch site: AIR FORCE EASTERN TEST RANGE (AFETR)
Your satellite tracking list
IRIDIUM 33 DEB
Track 1 satellite(s)




NASA's NSSDC Master Catalog

Two Line Element Set (TLE):
1 58734U 24005G   25199.86370915 -.00000058  00000-0  10792-4 0  9990
2 58734  43.0044  52.5490 0000726 252.8986 107.1777 15.02535352 85244
Source of the keplerian elements: AFSPC